User: anonymous   Login
Location: Starry Hill Observatory
(46.8582°N, 122.3590°W)
Time: 18:19:00
(UTC-07:00)
Language:

Cosmos 1300 Rocket - Orbit

View from above orbital plane
View from above orbital plane
View from above satellite
View from above satellite

Ground track
Ground track

The orbit data is extracted from the following two-line orbital elements,

1 12786U 81082B   15144.59267186  .00000267  00000-0  28858-4 0  9992
2 12786 082.4873 318.8067 0016628 221.7677 138.2270 14.84462002822855
Epoch (UTC): 24 May 2015 14:13:26
Eccentricity: 0.0016628
inclination: 82.4873°
perigee height: 603 km
apogee height: 627 km
right ascension of ascending node: 318.8067°
argument of perigee: 221.7677°
revolutions per day: 14.84462002
mean anomaly at epoch: 138.2270°
orbit number at epoch: 82285

The dashed part of the orbit path shows where the satellite is in the earth's shadow,  

DLR